Lake Charles Regional, LA

12:36 PM CDT on June 23, 2017 (GMT -0500)
Lake Charles Regional

Weather History for KLCH - November, 2013

Change the Weather History Date:

Saturday, November 2, 2013

  Actual Average Record
Temperature  
Mean Temperature 64 °F 65 °F  
Max Temperature 72 °F 76 °F 87 °F (1935)
Min Temperature 55 °F 54 °F 33 °F (1966)
Degree Days  
Heating Degree Days 1 3  
Month to date heating degree days 1 6  
Since 1 July heating degree days 19 42  
Cooling Degree Days 0 3  
Month to date cooling degree days 3 6  
Year to date cooling degree days 2910 2739  
Growing Degree Days 14 (Base 50)    
Moisture  
Dew Point 46 °F    
Average Humidity 61    
Maximum Humidity 93    
Minimum Humidity 29    
Precipitation  
Precipitation 0.02 in 0.15 in 2.77 in (1995)
Month to date precipitation 0.02 0.31  
Year to date precipitation 52.25 48.69  
Snow  
Snow 0.00 in 0.00 in 0.00 in ()
Month to date snowfall 0.0 0.0  
Since 1 July snowfall 0.0 0.0  
Since 1 September snowfall 0.0 0.0  
Snow Depth 0.00 in    
Sea Level Pressure  
Sea Level Pressure 30.12 in    
Wind  
Wind Speed 11 mph (North)    
Max Wind Speed 22 mph    
Max Gust Speed 28 mph    
Visibility 10 miles    
Events Rain    
T = Trace of Precipitation, MM = Missing Value Source: NWS Daily Summary

Daily Weather History Graph

Daily Weather History Graph

Search for Another Location

Airport or City:

Trip Planner

Search our weather history database for the weather conditions in past years. The results will help you decide how hot, cold, wet, or windy it might be!

Date:

Astronomy

Nov. 02, 2013 Rise Set
Actual Time 7:27 AM CDT 6:24 PM CDT
Civil Twilight 7:03 AM CDT 6:49 PM CDT
Nautical Twilight 6:34 AM CDT 7:17 PM CDT
Astronomical Twilight 6:06 AM CDT 7:45 PM CDT
Moon 6:28 AM CDT (11/2) 5:55 PM CDT (11/2)
Length of Visible Light 11h 46m
Length of Day
10h 56m
Waning Crescent, 1% of the Moon is Illuminated
Nov 2
Waning Crescent
Nov 3
New
Nov 9
First Quarter
Nov 17
Full
Nov 25
Last Quarter

Hourly Weather History & Observations

Time (CDT) Temp. Dew Point Humidity Pressure Visibility Wind Dir Wind Speed Gust Speed Precip Events Conditions
12:53 AM 62.1 °F 57.9 °F 86% 30.01 in 10.0 mi WNW 6.9 mph - 0.00 in Rain Light Rain
1:53 AM 63.0 °F 61.0 °F 93% 29.99 in 10.0 mi North 4.6 mph - 0.02 in   Overcast
2:53 AM 62.1 °F 59.0 °F 90% 30.00 in 10.0 mi ENE 3.5 mph - N/A   Mostly Cloudy
3:53 AM 60.1 °F 57.0 °F 90% 30.02 in 10.0 mi NNE 5.8 mph - N/A   Clear
4:53 AM 57.9 °F 55.9 °F 93% 30.03 in 10.0 mi Calm Calm - N/A   Scattered Clouds
5:53 AM 57.9 °F 55.0 °F 90% 30.06 in 10.0 mi NNW 6.9 mph - N/A   Partly Cloudy
6:53 AM 60.1 °F 53.1 °F 78% 30.08 in 10.0 mi NNW 15.0 mph - N/A   Clear
7:53 AM 59.0 °F 51.1 °F 75% 30.11 in 10.0 mi North 12.7 mph - N/A   Clear
8:53 AM 60.1 °F 50.0 °F 69% 30.13 in 10.0 mi North 15.0 mph 21.9 mph N/A   Clear
9:53 AM 63.0 °F 48.9 °F 60% 30.15 in 10.0 mi North 13.8 mph 20.7 mph N/A   Clear
10:53 AM 66.0 °F 46.9 °F 50% 30.17 in 10.0 mi North 15.0 mph 21.9 mph N/A   Clear
11:53 AM 69.1 °F 44.1 °F 40% 30.18 in 10.0 mi North 17.3 mph 25.3 mph N/A   Clear
12:53 PM 70.0 °F 41.0 °F 35% 30.16 in 10.0 mi North 13.8 mph 25.3 mph N/A   Clear
1:53 PM 71.1 °F 41.0 °F 34% 30.13 in 10.0 mi North 16.1 mph 26.5 mph N/A   Clear
2:53 PM 72.0 °F 41.0 °F 33% 30.11 in 10.0 mi North 16.1 mph 21.9 mph N/A   Clear
3:53 PM 71.1 °F 37.0 °F 29% 30.11 in 10.0 mi NNW 15.0 mph 26.5 mph N/A   Clear
4:53 PM 70.0 °F 37.0 °F 30% 30.12 in 10.0 mi North 10.4 mph - N/A   Clear
5:53 PM 68.0 °F 36.0 °F 31% 30.13 in 10.0 mi North 13.8 mph 20.7 mph N/A   Clear
6:53 PM 63.0 °F 36.0 °F 37% 30.16 in 10.0 mi North 8.1 mph - N/A   Clear
7:53 PM 60.1 °F 37.0 °F 42% 30.19 in 10.0 mi North 6.9 mph - N/A   Clear
8:53 PM 57.0 °F 39.9 °F 53% 30.21 in 10.0 mi North 5.8 mph - N/A   Clear
9:53 PM 57.0 °F 39.9 °F 53% 30.22 in 10.0 mi North 8.1 mph - N/A   Clear
10:53 PM 57.0 °F 41.0 °F 55% 30.23 in 10.0 mi North 10.4 mph - N/A   Clear
11:53 PM 55.9 °F 42.1 °F 60% 30.23 in 10.0 mi North 9.2 mph - N/A   Clear